Regional Weather Roundup
Issued by NWS Kansas City/Pleasant Hill, MO

Home | Current Version | Previous Version | Graphics & Text | Print | Product List | Glossary Off
Versions: 1 2 3 4 5 6 7 8 9 10 11 12 13 14 15 16 17 18 19 20 21 22 23 24 25 26 27 28 29 30 31 32 33 34 35 36 37 38 39 40 41 42 43 44 45 46 47 48 49 50

000
ASUS43 KEAX 021911
RWREAX

WEATHER ROUNDUP FOR EASTERN KANSAS AND NORTHWEST MISSOURI
NATIONAL WEATHER SERVICE KANSAS CITY/PLEASANT HILL MO
100 PM CST MON MAR 02 2015

KSZ040-057-103>105-MOZ028-029-037-043-022000-
...KANSAS CITY METROPOLITAN AREA...

CITY           SKY/WX    TMP DP  RH WIND       PRES   REMARKS
K.C. INTL      CLOUDY    39  21  48 SE16      30.37F WCI  30
K.C. DOWNTOWN  MOSUNNY   40  18  41 SE10      30.38F WCI  33
LEES SUMMIT    PTSUNNY   36  20  52 E12       30.39F WCI  28
OLATHE - IXD   PTSUNNY   35  21  56 SE13      30.37F WCI  26
OLATHE - OJC   PTSUNNY   35  17  47 SE15G23   30.36F WCI  25
LAWRENCE       MOSUNNY   38  19  46 SE16      30.38F WCI  29

$$

MOZ001>008-011>017-020>025-030>033-038>040-044>046-053-054-022000-
...NORTHERN AND CENTRAL MISSOURI...

CITY           SKY/WX    TMP DP  RH WIND       PRES   REMARKS
ST. JOSEPH     MOSUNNY   41  22  46 SE14      30.38F WCI  33
MOSBY          CLEAR     36  21  55 SE10      30.39F WCI  28
WARRENSBURG    PTSUNNY   36  21  55 NE12      30.40F WCI  27
WHITEMAN AFB   PTSUNNY   35  18  51 E10       30.39F WCI  27
CLINTON        PTSUNNY   37  21  52 SE7       30.39F WCI  32
SEDALIA        PTSUNNY   35  18  49 E13       30.41F WCI  26
WARSAW         NOT AVBL
MARSHALL       MOSUNNY   36  23  60 SE9       30.50F WCI  29
CHILLICOTHE      N/A     37  23  56 SE9       30.44F WCI  30
MOBERLY        MOSUNNY   36  18  48 SE9       30.47F WCI  29
KIRKSVILLE     PTSUNNY   31  20  63 SE6       30.44F WCI  25

$$

MOZ041-047>049-056>058-063>065-088>090-097-022000-
...EASTERN AND SOUTHERN MISSOURI...

CITY           SKY/WX    TMP DP  RH WIND       PRES   REMARKS
ST. LOUIS INTL PTSUNNY   34  17  50 SE7       30.49F WCI  28
SPIRIT OF STL  SUNNY     34  16  47 SE7       30.47F WCI  28
COLUMBIA       PTSUNNY   35  19  52 E8        30.44F WCI  29
JEFFERSON CITY MOSUNNY   35  17  47 E9        30.45F WCI  28
MEXICO         MOSUNNY   36  25  64 E7        30.47F WCI  30
HANNIBAL       PTSUNNY   43  14  31 NE5       30.46F
ROLLA          MOSUNNY   33  17  51 NE9       30.40F WCI  25
LEBANON        PTSUNNY   43  16  33 E8        30.37F
OSAGE BEACH    PTSUNNY   36  16  44 E9        30.41F WCI  29
SPRINGFIELD    CLOUDY    38  17  42 SE14      30.34F WCI  30
BRANSON        CLOUDY    36  23  60 E10       30.37F WCI  28
NEVADA         CLOUDY    36  21  55 E14       30.37F WCI  27
JOPLIN         CLOUDY    35  19  52 E12       30.33F WCI  27
WEST PLAINS    PTSUNNY   37  19  48 E9        30.39F WCI  30

$$

IAZ060-094-KSZ022-034>040-054-083-096-NEZ052-066-093-022000-
...KANSAS...SOUTHEAST NEBRASKA AND IOWA...

CITY           SKY/WX    TMP DP  RH WIND       PRES   REMARKS
TOPEKA         MOSUNNY   39  20  46 SE14      30.36F WCI  31
MANHATTAN      MOSUNNY   40  20  44 SE16      30.34F WCI  31
EMPORIA        PTSUNNY   35  19  52 SE17G26   30.35F WCI  25
CHANUTE        CLOUDY    37  20  50 E13       30.34F WCI  29
WICHITA        CLOUDY    34  18  52 E13       30.29F WCI  25
OMAHA          CLOUDY    36  20  52 S14       30.34F WCI  27
LINCOLN        CLOUDY    42  21  43 S16G25    30.31F WCI  34
FALLS CITY     PTSUNNY   39  21  48 SE12      30.35F WCI  32
LAMONI         PTSUNNY   33  19  56 E8        30.39F WCI  26
DES MOINES     CLOUDY    30  14  51 SE7       30.42F WCI  23

$$



USA.gov is the U.S. government's official web portal to all federal, state and local government web resources and services.